EW1423 Weather Reports


time (UTC)temp
F
wind
direction
speed
knots
gust
knots
rain 1hr
in
rain 24hr
in
rain mn
in
humidity
%
barometer
mb
20260509002306 46 66 0.0 0.0 0.00 0.00 0.00 96 1017.6
20260509001804 46 66 0.0 0.0 0.00 0.00 0.00 96 1017.6
20260509001304 46 66 0.0 0.0 0.00 0.00 0.00 96 1017.6
20260509000819 46 66 0.0 0.0 0.00 0.00 0.00 95 1017.7
20260509000303 47 66 0.0 0.0 0.00 0.00 0.00 95 1017.7
20260508235803 47 66 0.0 0.0 0.00 0.00 0.00 94 1017.7
20260508235306 47 66 0.0 0.0 0.00 0.00 0.00 94 1017.8
20260508234803 48 66 0.0 0.0 0.00 0.00 0.00 93 1017.7
20260508233304 48 66 0.0 0.0 0.00 0.00 0.00 93 1017.6
20260508232803 49 66 0.0 0.0 0.00 0.00 0.00 93 1017.6
20260508232306 49 66 0.0 0.9 0.00 0.00 0.00 93 1017.6
20260508231804 49 66 0.0 0.0 0.00 0.00 0.00 93 1017.6
20260508230804 49 66 0.0 0.9 0.00 0.01 0.00 93 1017.6
20260508230303 49 66 0.0 0.9 0.00 0.01 0.00 93 1017.6
20260508225803 49 66 0.0 0.9 0.00 0.01 0.00 93 1017.6
20260508225306 49 66 0.0 0.0 0.00 0.01 0.00 93 1017.6
20260508224804 49 66 0.0 0.0 0.00 0.01 0.00 93 1017.6
20260508224304 49 66 0.0 0.0 0.00 0.01 0.00 92 1017.6
20260508223803 49 66 0.0 0.0 0.00 0.01 0.00 92 1017.6
20260508222306 50 66 0.0 0.0 0.00 0.01 0.00 91 1017.5
20260508221803 50 66 0.0 0.0 0.00 0.01 0.00 91 1017.5
20260508221304 50 66 0.0 0.0 0.00 0.01 0.00 90 1017.5
20260508220303 50 66 0.0 0.0 0.00 0.01 0.00 90 1017.5
20260508215803 51 66 0.0 0.0 0.00 0.01 0.01 89 1017.5
20260508215306 51 66 0.0 0.0 0.00 0.01 0.01 89 1017.5
20260508214803 51 66 0.0 0.0 0.00 0.01 0.01 88 1017.5
20260508214304 51 66 0.0 0.9 0.00 0.01 0.01 88 1017.5
20260508213804 51 66 0.0 0.9 0.00 0.01 0.01 88 1017.4
20260508212803 52 66 0.0 0.9 0.00 0.01 0.01 88 1017.4
20260508212306 52 66 0.0 0.9 0.00 0.01 0.01 89 1017.4
20260508211804 52 66 0.0 0.0 0.00 0.01 0.01 88 1017.4
20260508211304 52 66 0.0 0.9 0.00 0.01 0.01 88 1017.4
20260508210303 52 66 0.0 0.9 0.00 0.01 0.01 88 1017.3
20260508205319 53 66 0.0 0.0 0.00 0.01 0.01 86 1017.1
20260508204803 53 66 0.0 0.0 0.00 0.01 0.01 86 1017.1
20260508204303 53 66 0.0 0.0 0.00 0.01 0.01 85 1017.1
20260508203804 54 66 0.0 0.9 0.00 0.01 0.01 84 1017.1
20260508203304 54 66 0.0 0.0 0.00 0.01 0.01 83 1017.1
20260508201303 56 66 0.0 0.9 0.00 0.01 0.01 79 1017.0
20260508200804 56 66 0.0 0.0 0.00 0.01 0.01 77 1017.0
20260508200304 56 66 0.0 0.9 0.00 0.01 0.01 77 1016.7
20260508195804 56 66 0.0 0.9 0.00 0.01 0.01 78 1016.7
20260508195306 56 66 0.0 0.0 0.00 0.01 0.01 76 1016.7
20260508194803 57 66 0.0 0.0 0.00 0.01 0.01 76 1016.7
20260508193804 58 66 0.0 0.9 0.00 0.01 0.01 74 1015.9
20260508193304 59 66 0.0 0.9 0.00 0.01 0.01 72 1015.9
20260508192804 59 66 0.0 0.0 0.00 0.01 0.01 71 1015.9
20260508192306 60 66 0.0 0.9 0.00 0.01 0.01 70 1015.9
20260508191803 60 66 0.0 0.9 0.00 0.01 0.01 69 1015.9
20260508191303 60 66 0.0 2.6 0.00 0.01 0.01 68 1015.9
20260508190804 61 15 0.9 4.3 0.00 0.01 0.01 68 1015.9
20260508190304 61 1 0.9 2.6 0.00 0.01 0.01 67 1015.9
20260508185306 61 9 0.9 2.6 0.00 0.01 0.01 67 1015.9
20260508184804 62 16 0.9 4.3 0.00 0.01 0.01 67 1015.9
20260508184304 62 24 0.9 4.3 0.00 0.01 0.01 67 1015.5
20260508183303 62 335 0.9 4.3 0.00 0.01 0.01 66 1015.5
20260508182804 63 75 0.9 2.6 0.00 0.01 0.01 67 1015.5
20260508182306 63 65 0.9 4.3 0.00 0.01 0.01 66 1015.5
20260508181304 63 29 0.0 1.7 0.00 0.01 0.01 66 1015.3
20260508180304 64 77 0.9 4.3 0.00 0.01 0.01 64 1015.3
20260508175306 64 58 1.7 7.0 0.00 0.01 0.01 64 1015.3
20260508174804 65 120 0.9 4.3 0.00 0.01 0.01 63 1015.1
20260508174303 65 13 0.9 4.3 0.00 0.01 0.01 62 1015.1
20260508173803 65 53 1.7 4.3 0.00 0.01 0.01 62 1015.1
20260508173303 66 21 1.7 5.2 0.00 0.01 0.01 61 1015.1
20260508172307 66 21 1.7 6.1 0.00 0.01 0.01 60 1015.1
20260508171804 67 74 1.7 5.2 0.00 0.01 0.01 59 1015.1
20260508171304 67 26 1.7 4.3 0.00 0.01 0.01 59 1015.0
20260508165803 69 89 1.7 4.3 0.00 0.01 0.01 57 1014.7
20260508165306 69 101 1.7 4.3 0.00 0.01 0.01 57 1014.7
20260508164803 69 59 2.6 5.2 0.00 0.01 0.01 56 1014.7
20260508164303 70 75 1.7 4.3 0.00 0.01 0.01 55 1014.7
20260508163804 70 80 1.7 4.3 0.00 0.01 0.01 54 1014.7
20260508163304 70 87 0.9 4.3 0.00 0.01 0.01 57 1014.7
20260508162306 70 76 2.6 4.3 0.00 0.01 0.01 54 1014.7
20260508161804 70 85 1.7 4.3 0.00 0.01 0.01 54 1014.7
20260508161303 70 2 2.6 7.0 0.00 0.01 0.01 54 1014.8
20260508155804 71 216 1.7 4.3 0.00 0.01 0.01 52 1014.8
20260508155306 71 30 0.9 4.3 0.00 0.01 0.01 50 1014.8
20260508154804 70 114 0.9 1.7 0.00 0.01 0.01 52 1014.8
20260508154304 69 67 1.7 4.3 0.00 0.01 0.01 54 1014.8
20260508153804 68 52 0.9 4.3 0.00 0.01 0.01 55 1014.8
20260508153304 68 85 1.7 4.3 0.00 0.01 0.01 56 1015.0
20260508152306 71 75 1.7 7.0 0.00 0.01 0.01 53 1015.0
20260508151804 71 112 0.9 2.6 0.00 0.01 0.01 51 1015.0
20260508151304 72 78 0.9 2.6 0.00 0.01 0.01 49 1015.0
20260508150804 72 66 0.9 2.6 0.00 0.01 0.01 51 1015.0
20260508150304 72 86 1.7 4.3 0.00 0.01 0.01 48 1015.0
20260508145804 73 134 0.9 4.3 0.00 0.01 0.01 49 1015.0
20260508145306 72 8 1.7 4.3 0.00 0.01 0.01 48 1015.1
20260508144803 72 54 1.7 4.3 0.00 0.01 0.01 49 1015.2
20260508144304 72 78 1.7 4.3 0.00 0.01 0.01 51 1015.2
20260508143804 73 81 1.7 4.3 0.00 0.01 0.01 48 1015.3
20260508143303 73 89 1.7 6.1 0.00 0.01 0.01 49 1015.3
20260508142804 73 31 1.7 5.2 0.00 0.01 0.01 47 1015.3
20260508142306 73 288 1.7 5.2 0.00 0.01 0.01 49 1015.3
20260508141804 72 69 0.9 2.6 0.00 0.01 0.01 48 1015.5
20260508141303 71 186 0.0 0.9 0.00 0.01 0.01 54 1015.5
20260508140804 71 180 0.9 4.3 0.00 0.01 0.01 50 1015.5
20260508140304 72 148 0.9 5.2 0.00 0.01 0.01 54 1015.6
20260508135803 71 140 1.7 4.3 0.00 0.01 0.01 50 1015.6
20260508135306 72 0 0.9 2.6 0.00 0.01 0.01 48 1015.6
20260508134803 72 93 0.9 4.3 0.00 0.01 0.01 54 1015.9
20260508134304 71 113 0.9 2.6 0.00 0.01 0.01 54 1015.9
20260508133304 71 58 0.9 2.6 0.00 0.01 0.01 51 1015.9
20260508132804 70 60 0.9 2.6 0.00 0.01 0.01 53 1015.9
20260508132306 69 53 0.9 2.6 0.00 0.01 0.01 56 1015.9
20260508131805 69 78 0.9 2.6 0.00 0.01 0.01 54 1015.9
20260508131304 68 103 0.0 0.9 0.00 0.01 0.01 54 1016.0
20260508130304 67 103 0.0 0.9 0.00 0.01 0.01 58 1016.1
20260508125306 68 105 0.9 5.2 0.00 0.01 0.01 56 1016.1
20260508124803 69 169 0.9 4.3 0.00 0.01 0.01 55 1016.1
20260508124304 71 292 0.9 2.6 0.00 0.01 0.01 54 1016.1
20260508123804 69 306 1.7 4.3 0.00 0.01 0.01 55 1016.3
20260508123303 69 48 0.9 2.6 0.00 0.01 0.01 56 1016.3
20260508122306 69 299 1.7 4.3 0.00 0.01 0.01 56 1016.3
20260508120803 67 65 0.9 4.3 0.00 0.01 0.01 55 1016.3
20260508120304 67 23 0.9 4.3 0.00 0.01 0.01 58 1016.3
20260508115804 67 92 0.9 5.2 0.00 0.01 0.01 57 1016.3
20260508115306 69 26 2.6 4.3 0.00 0.01 0.01 55 1016.3
20260508114804 71 300 1.7 5.2 0.00 0.01 0.01 56 1016.4
20260508114303 71 254 1.7 4.3 0.00 0.01 0.01 52 1016.5
20260508113804 71 54 0.9 4.3 0.00 0.01 0.01 50 1016.5
20260508113304 71 222 0.9 2.6 0.00 0.01 0.01 52 1016.6
20260508112804 70 126 0.9 2.6 0.00 0.01 0.01 57 1016.6
20260508112306 70 105 0.9 4.3 0.00 0.01 0.01 55 1016.6
20260508111803 70 115 1.7 2.6 0.00 0.01 0.01 56 1016.7
20260508111304 68 97 0.9 1.7 0.00 0.01 0.01 56 1016.7
20260508110303 68 63 0.9 4.3 0.00 0.01 0.01 57 1016.7
20260508105804 66 96 0.9 1.7 0.00 0.01 0.01 61 1016.7
20260508105306 67 293 0.9 1.7 0.00 0.01 0.01 61 1017.1
20260508104804 67 293 0.9 2.6 0.00 0.01 0.01 59 1017.1
20260508104303 67 282 1.7 4.3 0.00 0.01 0.01 59 1017.1
20260508102306 63 24 0.9 1.7 0.00 0.01 0.01 64 1017.1
20260508101804 63 94 0.9 0.9 0.00 0.01 0.01 66 1017.1
20260508101303 63 32 0.9 1.7 0.00 0.01 0.01 65 1017.1
20260508100803 63 35 0.0 1.7 0.00 0.01 0.01 63 1017.1
20260508095803 65 305 0.0 2.6 0.00 0.01 0.01 61 1017.1
20260508095306 66 343 0.9 6.1 0.00 0.01 0.01 62 1017.3
20260508093804 67 282 0.9 2.6 0.00 0.01 0.01 63 1017.3
20260508093303 67 47 0.9 4.3 0.00 0.01 0.01 59 1017.3
20260508092312 67 311 1.7 2.6 0.00 0.01 0.01 63 1017.3
20260508091804 66 209 0.0 1.7 0.00 0.01 0.01 64 1017.3
20260508091303 65 220 0.9 4.3 0.00 0.01 0.01 65 1017.3
20260508090304 65 58 0.9 2.6 0.00 0.01 0.01 64 1017.3
20260508085804 64 307 0.9 2.6 0.00 0.01 0.01 67 1017.3
20260508085306 64 270 1.7 2.6 0.00 0.01 0.01 66 1017.3
20260508084803 63 261 0.0 2.6 0.00 0.01 0.01 67 1017.2
20260508083804 62 300 1.7 4.3 0.00 0.01 0.01 70 1017.3
20260508083304 61 304 0.9 2.6 0.00 0.01 0.01 71 1017.3
20260508082306 62 275 0.9 1.7 0.00 0.01 0.01 72 1017.3
20260508081804 60 275 1.7 2.6 0.00 0.01 0.01 71 1017.4
20260508081304 60 233 0.9 1.7 0.00 0.01 0.01 75 1017.4
20260508080303 59 275 0.0 1.7 0.00 0.01 0.01 75 1017.3
20260508075803 59 292 0.9 1.7 0.00 0.01 0.01 74 1017.3
20260508075308 58 61 0.9 1.7 0.00 0.01 0.01 77 1017.4
20260508074803 58 61 0.9 1.7 0.00 0.02 0.01 78 1017.4
20260508074303 57 61 0.9 4.3 0.00 0.02 0.01 78 1017.4
20260508073804 57 277 0.9 2.6 0.00 0.02 0.01 79 1017.4
20260508073303 56 120 0.9 1.7 0.00 0.02 0.01 80 1017.4
20260508072804 56 159 0.0 4.3 0.00 0.02 0.01 80 1017.4
20260508072307 56 159 0.9 1.7 0.00 0.02 0.01 80 1017.5
20260508071804 55 111 0.9 1.7 0.00 0.02 0.01 82 1017.5
20260508071304 54 111 0.9 2.6 0.00 0.02 0.01 81 1017.5
20260508070804 54 111 0.0 0.9 0.00 0.02 0.01 83 1017.5
20260508070304 52 111 0.9 2.6 0.00 0.03 0.01 83 1017.5
20260508065803 52 163 1.7 4.3 0.00 0.03 0.01 84 1017.5
20260508065307 52 121 0.9 1.7 0.00 0.03 0.01 85 1017.4
20260508064304 50 121 0.0 2.6 0.00 0.03 0.01 88 1017.4
20260508063304 50 40 0.9 1.7 0.00 0.04 0.01 90 1017.4
20260508062803 49 39 0.0 0.9 0.00 0.04 0.01 91 1017.4
20260508062306 48 39 0.0 0.9 0.00 0.04 0.01 92 1017.4
20260508061804 47 39 0.0 0.9 0.00 0.04 0.01 97 1017.4
20260508061303 46 39 0.0 1.7 0.00 0.05 0.01 98 1017.3
20260508060804 46 39 0.9 1.7 0.00 0.05 0.01 97 1017.4
20260508060318 45 39 0.9 1.7 0.00 0.05 0.01 99 1017.5
20260508055804 45 38 0.9 1.7 0.00 0.05 0.01 100 1017.5
20260508054804 44 5 0.0 1.7 0.00 0.06 0.01 100 1017.5
20260508054303 44 5 0.0 0.9 0.00 0.06 0.01 100 1017.5
20260508053803 43 5 0.0 0.9 0.00 0.06 0.01 100 1017.5
20260508053304 43 5 0.0 1.7 0.00 0.06 0.01 100 1017.5
20260508052804 43 5 0.0 0.9 0.00 0.06 0.01 100 1017.4
20260508052306 43 5 0.0 0.0 0.00 0.06 0.01 100 1017.4
20260508051804 43 5 0.0 0.0 0.00 0.06 0.01 100 1017.4
20260508051303 43 5 0.0 0.9 0.00 0.06 0.01 100 1017.4
20260508050803 43 5 0.0 0.0 0.00 0.06 0.01 100 1017.3
20260508050304 43 5 0.0 0.9 0.00 0.06 0.01 100 1017.3
20260508045804 43 5 0.0 0.9 0.00 0.06 0.01 100 1017.4
20260508045306 42 5 0.0 0.9 0.00 0.06 0.01 100 1017.4
20260508044803 42 5 0.0 0.9 0.00 0.06 0.01 100 1017.4
20260508044304 42 5 0.0 0.9 0.00 0.06 0.01 100 1017.1
20260508043803 42 5 0.0 0.0 0.00 0.06 0.01 100 1017.1
20260508042307 41 5 0.0 0.9 0.00 0.06 0.01 100 1017.0
20260508041804 41 5 0.0 0.9 0.00 0.06 0.01 100 1017.0
20260508041303 42 5 0.0 0.9 0.00 0.07 0.01 100 1017.0
20260508040804 42 5 0.0 0.9 0.00 0.07 0.01 100 1016.8
20260508040303 42 5 0.0 0.0 0.00 0.07 0.01 100 1016.8
20260508035803 42 5 0.0 0.9 0.00 0.08 0.01 100 1016.8
20260508035306 41 5 0.0 0.0 0.00 0.08 0.01 100 1016.8
20260508034804 41 5 0.0 0.0 0.00 0.08 0.01 100 1016.8
20260508034304 41 5 0.0 0.0 0.00 0.08 0.01 100 1016.8
20260508033804 41 5 0.0 0.0 0.00 0.08 0.01 100 1016.8
20260508033304 41 5 0.0 0.0 0.00 0.08 0.01 100 1016.6
20260508032803 40 5 0.0 0.0 0.00 0.08 0.01 100 1016.6
20260508032306 40 5 0.0 0.0 0.00 0.08 0.01 100 1016.6
20260508031804 39 5 0.0 0.0 0.00 0.08 0.01 100 1016.6
20260508030303 39 5 0.0 0.0 0.00 0.09 0.01 100 1016.6
20260508025804 39 5 0.0 0.0 0.00 0.09 0.01 100 1016.6
20260508025306 39 5 0.0 0.0 0.00 0.09 0.01 100 1016.6
20260508024804 39 5 0.0 0.0 0.00 0.09 0.01 100 1016.7
20260508023803 39 5 0.0 0.0 0.00 0.09 0.01 100 1016.7
20260508023303 39 5 0.0 0.0 0.00 0.09 0.01 100 1016.7
20260508022804 39 5 0.0 0.0 0.00 0.09 0.01 100 1016.7
20260508022306 39 5 0.0 0.0 0.00 0.09 0.01 100 1016.7
20260508021803 39 5 0.0 0.0 0.00 0.09 0.01 100 1016.7
20260508021304 39 5 0.0 0.0 0.00 0.09 0.01 100 1016.7
20260508020804 40 5 0.0 0.0 0.00 0.09 0.01 100 1016.6
20260508020303 40 5 0.0 0.0 0.00 0.09 0.01 100 1016.6
20260508015803 40 5 0.0 0.0 0.00 0.09 0.01 100 1016.6
20260508015306 40 5 0.0 0.0 0.00 0.09 0.01 100 1016.6
20260508014803 40 5 0.0 0.0 0.00 0.09 0.01 100 1016.6
20260508014304 40 5 0.0 0.0 0.00 0.10 0.01 100 1016.6
20260508013804 40 5 0.0 0.0 0.00 0.10 0.01 100 1016.6
20260508013304 40 5 0.0 0.0 0.00 0.11 0.01 100 1016.6
20260508012804 40 5 0.0 0.0 0.00 0.11 0.01 100 1016.6
20260508012307 40 5 0.0 0.0 0.00 0.11 0.01 100 1016.6
20260508011804 41 5 0.0 0.0 0.00 0.11 0.01 100 1016.6
20260508011303 41 5 0.0 0.0 0.00 0.12 0.01 100 1016.6
20260508010819 41 5 0.0 0.0 0.00 0.12 0.01 100 1016.7
20260508010303 41 5 0.0 0.0 0.00 0.13 0.01 100 1016.7
20260508005804 41 5 0.0 0.0 0.00 0.13 0.01 100 1016.7
20260508005305 41 5 0.0 0.0 0.00 0.13 0.01 100 1017.0
20260508004803 41 5 0.0 0.0 0.00 0.13 0.01 100 1017.0
20260508003803 41 5 0.0 0.0 0.00 0.13 0.01 100 1017.0
20260508002804 41 5 0.0 0.0 0.00 0.13 0.01 100 1017.0